EW0704 Weather Reports


time (UTC)temp
C
wind
direction
speed
KPH
gust
KPH
rain 1hr
cm
rain 24hr
cm
rain mn
cm
humidity
%
barometer
mb
20260505164712 25 211 6.4 22.5 0.00 0.00 0.00 45 1009.6
20260505163638 25 217 6.4 20.9 0.00 0.00 0.00 44 1009.9
20260505162606 24 192 6.4 32.2 0.00 0.00 0.00 47 1010.1
20260505161539 23 131 6.4 32.2 0.00 0.00 0.00 48 1010.2
20260505160544 23 161 6.4 20.9 0.00 0.00 0.00 48 1010.3
20260505152532 23 172 6.4 20.9 0.00 0.00 0.00 48 1010.9
20260505151516 22 195 6.4 29.0 0.00 0.00 0.00 50 1011.1
20260505124921 13 204 0.0 0.0 0.00 0.00 0.00 77 1010.8
20260505123911 13 204 0.0 1.6 0.00 0.00 0.00 80 1011.0
20260505121724 12 203 0.0 4.8 0.00 0.00 0.00 84 1011.2
20260505120723 12 202 0.0 9.7 0.00 0.00 0.00 84 1011.3
20260505115706 12 126 0.0 4.8 0.00 0.00 0.00 85 1011.4
20260505114729 11 126 0.0 4.8 0.00 0.00 0.00 85 1011.4
20260505113727 11 97 0.0 1.6 0.00 0.00 0.00 85 1011.5
20260505112704 11 97 0.0 0.0 0.00 0.00 0.00 85 1011.5
20260505111659 10 174 0.0 4.8 0.00 0.00 0.00 85 1011.5
20260505110654 10 173 0.0 0.0 0.00 0.00 0.00 84 1011.1
20260505101147 10 157 0.0 0.0 0.00 0.00 0.00 83 1010.4
20260505100137 10 157 0.0 3.2 0.00 0.00 0.00 83 1010.3
20260505095106 10 157 0.0 0.0 0.00 0.00 0.00 83 1010.3
20260505094121 9 157 0.0 0.0 0.00 0.00 0.00 83 1010.4
20260505093111 10 157 0.0 1.6 0.00 0.00 0.00 82 1010.3
20260505091019 10 157 0.0 0.0 0.00 0.00 0.00 82 1010.2
20260505090004 10 157 0.0 0.0 0.00 0.00 0.00 82 1010.1
20260505083856 10 157 0.0 0.0 0.00 0.00 0.00 81 1010.2
20260505082842 10 157 0.0 0.0 0.00 0.00 0.00 81 1010.4
20260505081904 10 157 0.0 0.0 0.00 0.00 0.00 81 1010.5
20260505080929 10 157 0.0 0.0 0.00 0.00 0.00 80 1010.4
20260505075918 10 157 0.0 0.0 0.00 0.00 0.00 80 1010.4
20260505074906 10 157 0.0 0.0 0.00 0.00 0.00 80 1010.3
20260505073922 10 157 0.0 1.6 0.00 0.00 0.00 79 1010.3
20260505072938 10 157 0.0 3.2 0.00 0.00 0.00 79 1010.3
20260505071925 10 157 0.0 3.2 0.00 0.00 0.00 79 1010.2
20260505070917 10 157 0.0 0.0 0.00 0.00 0.00 79 1010.3
20260505065939 10 157 0.0 3.2 0.00 0.00 0.00 79 1010.4
20260505064913 10 157 0.0 3.2 0.00 0.00 0.00 78 1010.4
20260505062816 10 158 0.0 3.2 0.00 0.00 0.00 78 1010.6
20260505060613 10 155 0.0 4.8 0.00 0.00 0.00 77 1010.6
20260505055559 10 155 0.0 1.6 0.00 0.00 0.00 77 1010.7
20260505054538 10 155 0.0 1.6 0.00 0.00 0.00 76 1010.8
20260505053508 10 155 0.0 0.0 0.00 0.00 0.00 76 1010.9
20260505052434 10 155 0.0 3.2 0.00 0.00 0.00 75 1010.9
20260505051424 10 155 0.0 1.6 0.00 0.00 0.00 75 1010.9
20260505050426 10 155 0.0 3.2 0.00 0.00 0.00 74 1011.0
20260505041318 10 199 0.0 0.0 0.00 0.00 0.00 72 1011.2
20260505040322 11 199 0.0 0.0 0.00 0.00 0.00 71 1011.3
20260505035336 11 199 0.0 0.0 0.00 0.00 0.00 70 1011.2
20260505034334 11 199 0.0 0.0 0.00 0.00 0.00 69 1011.2
20260505033308 11 199 0.0 0.0 0.00 0.00 0.00 68 1011.2
20260505030036 12 213 0.0 9.7 0.00 0.00 0.00 66 1011.3
20260505025038 12 220 0.0 0.0 0.00 0.00 0.00 66 1011.2
20260505024043 12 220 0.0 9.7 0.00 0.00 0.00 65 1011.2
20260505021929 12 187 1.6 9.7 0.00 0.00 0.00 64 1011.3
20260505020858 12 190 0.0 9.7 0.00 0.00 0.00 64 1011.4
20260505015844 12 208 0.0 9.7 0.00 0.00 0.00 64 1011.3
20260505014900 12 207 0.0 9.7 0.00 0.00 0.00 64 1011.3
20260505013830 12 211 1.6 14.5 0.00 0.00 0.00 63 1011.2
20260505012835 13 160 1.6 14.5 0.00 0.00 0.00 63 1011.2
20260505011842 13 170 1.6 12.9 0.00 0.00 0.00 61 1011.1
20260505005759 13 174 4.8 14.5 0.00 0.00 0.00 60 1010.7
20260505004733 13 186 6.4 29.0 0.00 0.00 0.00 59 1010.6
20260505003725 13 205 6.4 29.0 0.00 0.00 0.00 58 1010.6
20260505002732 13 207 6.4 19.3 0.00 0.00 0.00 57 1010.4
20260505001746 14 193 6.4 19.3 0.00 0.00 0.00 56 1010.3
20260505000734 14 191 6.4 32.2 0.00 0.00 0.00 55 1010.1
20260504235730 15 230 6.4 32.2 0.00 0.00 0.00 53 1009.9
20260504234744 15 192 6.4 22.5 0.00 0.00 0.00 52 1009.9
20260504233755 15 225 6.4 20.9 0.00 0.00 0.00 50 1009.7
20260504232738 16 199 6.4 19.3 0.00 0.00 0.00 49 1009.6
20260504231750 16 131 6.4 20.9 0.00 0.00 0.00 49 1009.5
20260504230721 16 205 6.4 29.0 0.00 0.00 0.00 48 1009.4
20260504225649 17 199 6.4 29.0 0.00 0.00 0.00 46 1009.4
20260504224627 17 203 6.4 22.5 0.00 0.00 0.00 45 1009.3
20260504222439 17 198 6.4 29.0 0.00 0.00 0.00 44 1009.3
20260504221459 18 234 11.3 30.6 0.00 0.00 0.00 43 1009.4
20260504220508 18 211 11.3 32.2 0.00 0.00 0.00 41 1009.5
20260504211023 20 166 9.7 38.6 0.00 0.00 0.00 37 1009.3
20260504210003 20 186 11.3 38.6 0.00 0.00 0.00 36 1009.4
20260504204953 20 217 12.9 38.6 0.00 0.00 0.00 38 1009.3
20260504204006 20 226 11.3 43.5 0.00 0.00 0.00 36 1009.2
20260504203013 21 195 14.5 43.5 0.00 0.00 0.00 35 1009.3
20260504201954 21 136 11.3 38.6 0.00 0.00 0.00 33 1009.3
20260504201006 21 176 11.3 38.6 0.00 0.00 0.00 32 1009.3
20260504195957 21 229 9.7 41.8 0.00 0.00 0.00 30 1009.2
20260504194932 22 168 11.3 41.8 0.00 0.00 0.00 30 1009.3
20260504192744 22 150 9.7 37.0 0.00 0.00 0.00 28 1009.4
20260504191723 22 206 11.3 37.0 0.00 0.00 0.00 28 1009.5
20260504185521 22 170 11.3 35.4 0.00 0.00 0.00 28 1009.8
20260504184536 22 212 11.3 35.4 0.00 0.00 0.00 27 1009.7
20260504183557 22 157 9.7 32.2 0.00 0.00 0.00 28 1009.8
20260504182549 22 165 6.4 25.7 0.00 0.00 0.00 27 1009.8
20260504181519 22 232 9.7 25.7 0.00 0.00 0.00 27 1010.1
20260504180526 22 197 6.4 35.4 0.00 0.00 0.00 28 1010.2
20260504175515 21 227 9.7 35.4 0.00 0.00 0.00 28 1010.3
20260504173319 21 239 6.4 37.0 0.00 0.00 0.00 29 1010.6
20260504172305 21 232 11.3 37.0 0.00 0.00 0.00 28 1010.6
20260504171249 21 234 6.4 37.0 0.00 0.00 0.00 30 1010.6
20260504170303 20 261 12.9 37.0 0.00 0.00 0.00 26 1010.9